Theta_e
319 318 319 319 319 319 320 322 324 325 327 332 335 331 324 323 329 328 323 323 323 322 320 318 316 316 315 314 315 314 314 315 314 315 315 315 315 317 318 319 321 323 324 324 325 324 324 325 325 325 325 325 324 323 322 322 322 323 323 323 323 324 325 325 325 323 321 321 321 319 318 317 317 317 315 311 310 312 314 311 309 310 311 311 311 311 312
320 318 318 318 318 318 318 319 320 320 321 323 325 324 322 321 324 322 320 319 318 316 314 311 310 310 310 310 310 310 310 310 309 311 310 310 311 311 312 313 316 318 319 321 322 323 323 324 324 325 324 324 324 324 324 323 323 323 323 323 322 323 324 324 325 323 321 320 320 317 317 317 318 318 316 313 312 312 311 311 311 311 313 315 315 313 312
320 318 318 318 317 317 317 317 317 318 319 320 320 320 319 319 319 317 316 316 315 312 310 309 308 308 308 308 307 307 307 307 307 307 307 307 308 308 309 310 312 313 314 316 317 319 320 322 323 324 323 323 324 324 324 324 323 323 323 323 324 324 323 323 323 322 320 319 319 318 317 317 317 319 319 318 317 314 312 313 315 315 315 317 318 317 315
320 316 317 318 316 317 319 318 316 317 319 319 318 319 319 319 317 316 317 316 314 311 310 308 308 307 307 306 306 306 305 305 305 305 305 306 306 307 308 309 310 311 311 312 313 313 316 319 322 323 323 323 323 324 323 323 323 323 323 323 323 324 324 323 322 321 320 319 319 319 319 318 318 320 320 320 319 318 317 317 318 318 318 318 318 318 318
318 316 317 318 318 319 320 316 314 315 317 317 318 318 318 318 317 317 318 316 313 311 309 308 308 307 306 305 305 305 305 304 305 305 305 305 306 307 307 308 309 310 309 310 310 310 312 316 319 321 322 322 322 323 322 322 322 323 323 323 324 324 325 324 324 323 322 321 321 322 322 321 320 320 321 321 321 321 320 320 320 320 319 319 319 319 319
319 317 317 319 319 319 317 313 312 314 315 315 316 315 314 315 314 313 313 313 312 311 309 308 307 306 305 304 305 305 306 305 305 306 307 307 307 307 307 308 308 308 308 309 309 309 310 312 316 319 322 322 322 322 321 321 321 321 322 322 323 324 323 323 323 324 324 323 323 323 323 322 321 320 320 321 322 321 322 321 321 321 320 320 320 319 320
320 317 318 320 319 317 315 313 310 311 312 313 312 311 310 311 311 310 310 310 310 309 308 307 307 305 305 306 306 307 307 308 308 308 308 308 309 308 308 308 308 309 309 309 309 309 309 309 312 315 317 318 319 319 319 320 320 319 319 320 322 322 322 322 323 322 323 323 323 322 321 321 321 321 321 322 322 321 322 322 321 321 321 320 320 320 320
319 318 319 319 316 314 315 314 310 309 312 313 312 311 310 309 309 310 309 308 307 307 307 306 305 304 304 305 306 306 307 309 310 309 308 309 309 309 309 309 308 309 309 309 309 309 308 308 309 310 311 312 312 313 314 315 315 314 315 317 318 319 320 320 321 321 321 322 321 321 321 321 321 322 322 322 321 321 321 321 321 321 321 321 321 321 320
317 317 317 316 315 313 314 314 310 308 310 312 312 313 311 309 308 309 308 306 305 305 305 305 304 304 303 303 304 304 305 307 308 308 308 308 309 309 309 310 309 309 309 309 309 309 308 309 309 309 309 309 309 310 310 310 310 310 311 312 313 314 316 317 318 319 320 321 321 321 320 320 320 320 320 320 320 321 320 320 321 320 320 320 321 321 320
316 316 315 315 316 315 313 313 310 307 308 308 309 312 313 309 307 308 307 305 304 304 304 304 304 303 303 303 302 303 303 304 304 305 306 306 306 306 307 308 309 309 309 309 309 309 309 308 309 310 310 310 310 310 309 309 309 309 309 309 310 311 312 313 314 316 317 317 318 320 319 319 318 317 317 318 318 319 319 319 319 319 319 319 319 319 318
317 317 315 315 315 313 311 311 310 307 307 308 310 314 314 310 307 306 305 304 304 303 304 304 304 304 305 304 303 302 303 303 303 303 303 303 303 303 304 306 306 307 308 308 308 309 309 309 309 310 310 310 311 311 311 310 310 310 309 309 309 309 309 310 311 312 312 313 314 315 315 316 317 317 317 316 316 316 316 316 316 317 316 316 316 316 316
314 314 313 313 312 311 309 309 309 307 307 308 312 315 314 310 307 306 305 305 304 304 304 304 304 304 304 304 303 303 303 303 302 301 301 301 302 302 302 303 303 304 304 305 306 307 307 307 307 309 310 311 311 311 311 311 310 310 309 309 309 309 309 309 310 310 311 311 311 312 312 313 315 316 316 315 314 314 314 314 314 314 314 313 313 313 313
311 311 311 310 311 310 308 306 307 306 307 310 313 314 312 310 308 307 306 306 306 305 304 304 303 303 304 304 303 303 302 301 300 300 299 300 301 301 301 301 301 301 301 301 302 302 302 302 303 305 307 308 309 310 310 310 310 309 309 309 309 309 309 309 309 310 310 310 310 311 311 312 312 313 313 314 314 314 315 314 314 314 314 313 312 312 311
311 311 310 310 310 308 305 305 305 306 310 313 312 309 308 308 307 307 306 305 304 304 303 302 302 302 303 303 302 302 301 301 301 301 300 300 300 300 300 300 300 300 300 300 300 300 300 299 299 299 300 302 304 304 305 307 308 308 308 309 309 309 310 310 310 309 309 310 310 310 310 311 311 311 312 312 312 313 313 312 313 314 314 313 313 313 313
311 311 309 310 311 307 304 306 308 308 309 310 308 305 305 306 305 305 304 303 303 303 302 301 301 302 302 302 301 301 301 301 301 301 301 300 298 298 298 298 298 298 298 299 299 299 298 298 297 296 297 299 299 299 300 301 301 302 304 306 306 307 308 309 309 309 309 309 309 310 310 310 310 311 311 311 311 311 311 311 311 311 312 312 312 312 312
310 311 308 307 307 304 303 306 307 306 306 306 305 304 304 304 304 304 303 302 302 302 302 301 302 302 301 302 302 301 301 300 300 299 298 297 296 296 296 296 296 297 297 297 297 297 296 296 296 296 296 297 297 297 297 298 298 298 299 300 301 302 302 304 305 306 306 307 307 307 307 308 309 309 309 309 310 310 311 311 310 310 310 311 311 311 311
307 308 306 304 304 302 302 304 304 303 304 304 304 304 303 303 303 303 302 302 302 302 302 302 302 302 301 301 301 301 300 299 298 297 296 296 296 296 296 296 296 296 297 297 297 297 297 297 297 297 297 297 297 297 297 297 297 297 297 297 298 298 299 299 300 301 302 304 304 303 303 304 305 305 305 306 307 307 308 309 310 309 310 310 310 310 310
304 305 304 303 303 302 302 303 303 303 303 303 303 303 302 302 303 302 302 303 302 303 303 302 301 301 300 300 299 299 298 298 298 297 297 297 297 296 296 296 296 296 297 297 297 297 298 298 298 297 297 297 297 297 297 297 297 297 297 297 297 297 297 297 297 298 298 298 298 299 299 299 300 301 302 303 304 304 305 307 307 308 308 308 309 309 309
305 305 304 302 303 302 302 303 303 303 304 304 304 304 303 303 303 303 303 303 302 303 303 301 300 299 299 299 299 299 299 299 298 298 297 297 297 297 296 296 297 297 298 298 298 298 298 298 298 298 297 297 297 297 297 297 297 297 297 297 297 297 297 297 296 296 297 296 297 297 297 297 297 297 298 299 301 302 303 304 306 306 307 307 307 308 308
305 305 303 302 303 302 302 303 303 302 303 303 303 304 303 303 303 302 302 302 301 301 301 300 299 299 299 299 300 299 299 298 298 298 298 297 297 297 297 298 298 298 298 298 298 298 298 298 298 298 298 297 297 297 297 297 297 297 297 297 296 296 296 296 296 296 296 296 296 296 297 297 297 297 297 298 299 300 301 302 303 305 305 305 305 306 307
304 304 303 302 303 302 302 302 302 302 302 302 302 302 302 302 301 300 300 300 300 300 300 300 299 298 298 299 299 298 298 298 297 297 297 297 297 297 297 298 298 298 298 298 298 297 298 297 297 297 297 297 297 297 297 297 297 297 297 297 296 296 296 296 296 296 296 296 296 296 296 297 297 297 298 298 299 299 300 300 301 302 303 303 303 304 304
305 304 303 303 303 303 302 302 302 302 302 301 301 301 301 301 301 300 300 299 299 300 300 300 299 298 297 298 298 297 297 297 297 297 296 296 297 297 297 297 297 297 297 297 297 297 297 297 297 297 297 297 297 297 297 297 297 296 296 296 296 296 296 296 296 296 295 295 295 295 296 296 296 297 297 298 298 299 299 300 300 300 301 301 302 302 302
305 304 303 302 303 302 302 302 302 301 301 300 300 300 300 300 300 300 300 299 299 299 299 299 299 298 297 297 297 297 297 296 296 296 296 296 297 297 297 297 297 297 297 297 297 297 297 297 297 297 297 297 296 296 296 296 295 295 295 295 295 295 295 295 295 295 295 295 295 295 295 295 295 295 296 297 297 298 299 299 300 300 300 301 301 301 302
303 303 303 302 301 301 301 302 302 301 300 300 300 299 299 299 299 299 299 299 299 299 299 298 298 298 297 297 297 296 296 296 295 295 296 296 296 296 296 296 296 296 296 296 296 296 296 296 296 296 296 296 295 295 295 294 294 294 294 293 293 293 293 293 293 293 293 293 293 293 294 294 294 294 295 295 296 297 297 298 299 300 300 300 301 301 301
303 302 302 301 300 300 300 301 301 300 300 300 300 299 299 299 298 298 298 298 298 298 298 298 298 297 297 296 296 296 296 295 295 295 296 296 296 296 295 295 295 295 295 295 296 296 296 296 296 295 295 295 295 295 294 294 294 294 293 292 292 292 292 292 292 292 292 293 293 293 294 294 294 294 294 295 295 295 296 297 297 298 299 300 300 301 301
302 301 301 300 299 299 299 299 299 299 299 299 299 298 298 297 297 297 297 297 297 297 297 297 297 296 296 295 295 295 295 295 295 295 295 295 295 295 294 294 294 295 295 295 295 295 295 295 295 295 295 295 295 294 294 294 293 293 293 293 293 293 293 293 292 292 292 293 294 294 295 295 295 295 296 296 296 296 297 296 296 296 297 298 299 300 300
300 301 300 299 298 299 299 299 299 298 298 298 298 297 297 297 297 297 297 297 297 297 297 296 296 295 295 295 295 295 295 295 295 295 295 295 295 294 293 293 294 295 295 294 295 295 295 295 295 295 295 294 294 294 293 293 293 294 294 294 294 294 294 294 293 293 293 294 295 295 296 296 296 296 296 296 297 297 297 297 297 297 296 297 298 299 299
299 299 299 298 298 298 298 299 298 298 298 297 297 297 297 297 297 297 297 297 297 297 296 296 295 295 295 295 295 294 295 295 295 295 295 294 293 293 292 293 294 295 295 294 294 295 295 295 295 294 293 293 293 294 294 294 295 295 295 295 295 295 295 295 295 295 294 294 295 295 296 296 295 295 295 295 295 296 296 296 297 297 297 297 298 299 299
298 298 298 298 297 298 298 298 297 297 297 297 297 297 297 297 297 297 297 297 297 296 296 295 295 294 295 295 294 294 295 295 295 295 294 293 292 291 290 291 293 295 295 295 295 295 294 294 293 293 292 293 294 294 295 295 295 295 295 296 296 296 296 296 295 295 295 294 295 295 295 295 294 294 294 294 294 294 295 295 295 296 297 298 298 299 299
298 298 298 298 297 298 298 297 297 297 297 297 297 297 297 297 297 297 297 297 296 296 295 295 294 294 294 294 294 295 295 295 295 295 294 293 291 289 289 290 293 294 295 295 295 294 293 293 293 293 293 294 295 295 295 295 295 295 295 295 295 295 295 295 295 295 295 295 295 295 294 294 294 294 294 294 294 294 294 294 294 294 296 297 298 298 299
298 298 298 297 297 298 298 298 297 297 297 297 297 297 297 297 296 296 297 296 296 295 295 295 294 294 294 294 295 295 295 295 295 294 293 291 289 288 289 291 294 295 296 296 295 294 293 293 293 294 294 294 294 294 295 295 295 295 295 295 295 295 295 295 295 295 295 294 294 294 294 293 293 294 294 294 294 294 294 293 293 294 295 296 297 298 299
298 298 298 298 298 298 298 297 297 297 297 297 297 297 297 297 296 296 297 296 295 295 295 295 295 295 295 295 295 295 295 294 294 292 290 289 288 289 291 294 296 296 296 295 294 293 293 293 294 294 294 294 294 294 295 295 296 296 296 296 296 295 295 295 295 295 295 295 295 294 294 293 294 294 293 293 293 293 293 292 292 293 295 296 297 298 298
298 298 298 298 298 298 297 297 297 297 297 297 297 297 297 297 296 296 296 296 296 295 295 295 295 295 295 295 295 294 293 291 290 289 289 288 288 291 294 296 296 296 295 294 294 293 293 293 294 294 294 294 294 294 295 295 296 296 297 296 296 296 295 295 295 295 294 294 294 294 294 294 294 294 293 293 293 292 292 291 291 292 294 295 296 297 298
298 298 298 298 298 298 297 297 297 297 297 297 297 297 297 296 296 295 296 296 296 296 295 295 294 294 294 294 293 291 290 288 288 288 288 288 290 293 296 296 296 295 294 294 294 294 294 294 294 294 294 295 295 295 295 295 295 296 296 296 296 296 296 296 295 295 294 294 293 293 293 294 294 294 293 293 292 292 291 291 291 292 293 294 295 296 297
299 298 298 298 298 298 297 297 297 297 297 297 297 297 297 296 296 296 296 296 296 295 295 294 294 294 293 292 290 288 288 288 288 288 288 289 292 295 296 296 295 295 294 294 294 294 294 294 294 294 295 295 295 295 295 295 295 295 295 295 295 296 297 296 295 294 294 293 293 293 293 293 293 293 293 293 292 291 291 291 292 292 293 293 294 295 295
298 298 298 298 298 297 297 297 297 297 297 297 297 297 297 296 296 296 296 295 295 295 294 294 294 293 291 289 288 288 289 288 288 288 288 290 293 295 296 296 295 295 294 295 295 295 295 295 295 295 295 295 295 295 295 295 295 295 295 295 295 296 296 295 295 294 293 293 293 293 292 292 292 293 293 293 292 292 292 291 292 292 292 293 293 294 295
298 298 298 297 297 297 297 297 297 297 297 297 297 297 297 296 296 296 296 295 295 294 294 294 293 291 289 289 289 290 290 290 289 289 289 291 294 296 296 296 296 295 295 295 295 295 295 295 295 295 294 295 295 295 295 295 295 295 295 295 295 295 295 295 294 294 294 294 293 293 293 292 292 292 293 293 292 292 292 291 291 292 292 293 293 293 294
298 298 298 297 297 297 297 297 297 297 296 296 297 297 296 296 296 296 295 295 295 295 295 294 292 291 291 291 292 291 292 291 291 290 291 293 295 296 296 296 296 295 295 295 295 295 295 295 295 295 295 295 295 295 295 295 295 295 295 295 295 295 295 295 294 294 294 294 294 293 293 293 292 292 292 293 293 292 292 291 291 292 292 293 293 293 293
298 298 298 298 298 297 297 297 297 297 296 296 297 297 296 296 296 296 296 295 295 294 294 294 292 291 291 292 292 292 292 292 291 291 292 295 295 295 295 295 296 295 295 295 295 295 296 295 295 295 295 295 296 295 295 295 295 295 295 295 295 295 295 295 295 295 295 295 295 294 294 294 293 292 292 292 293 293 292 292 291 292 292 292 292 292 293
298 298 298 298 298 298 297 297 297 297 296 296 296 296 296 296 296 296 296 295 294 294 294 294 293 291 291 291 291 292 292 292 291 291 292 294 295 295 295 295 295 295 295 295 295 295 295 296 295 295 295 296 296 296 295 295 295 295 295 295 295 295 295 295 295 296 295 295 295 295 294 294 293 293 292 292 292 292 292 292 292 292 292 292 292 292 292
298 298 298 298 298 297 297 297 297 297 297 296 296 296 296 296 296 296 296 295 295 294 294 294 293 292 292 291 291 290 291 292 291 291 291 293 294 294 294 295 294 294 295 296 296 295 296 296 296 296 296 296 296 296 296 295 295 295 295 295 295 296 296 295 296 296 295 295 295 295 294 294 293 293 293 292 291 291 291 292 292 292 292 292 292 292 292
298 298 297 297 297 297 297 297 297 297 297 297 297 296 296 296 296 296 296 295 295 294 294 294 293 293 293 292 291 290 291 292 292 291 291 292 293 293 294 294 293 292 293 296 297 296 296 296 297 296 296 296 296 296 296 295 295 295 296 295 295 296 296 296 296 296 295 295 295 295 294 294 293 293 293 292 291 290 290 291 291 292 292 292 292 292 292
298 298 297 298 297 297 297 297 297 297 297 297 297 297 296 296 296 296 296 295 295 294 294 294 293 293 294 293 292 291 291 292 292 292 292 292 292 292 293 294 293 291 291 293 296 297 297 297 297 296 296 296 296 296 296 296 296 296 296 296 296 296 296 295 295 295 295 295 295 294 294 294 293 293 292 292 291 290 289 290 290 291 291 292 292 292 292
298 298 298 298 298 297 297 297 297 297 297 297 297 297 297 297 297 296 296 295 295 294 294 294 294 293 294 294 293 292 292 291 291 291 291 291 291 291 292 293 294 292 289 290 293 296 296 296 296 296 296 296 296 295 295 295 295 295 295 295 295 295 294 293 294 294 295 294 294 294 294 294 293 292 292 292 291 290 289 289 289 289 290 291 291 292 292
298 298 297 298 298 297 297 297 297 297 297 297 297 297 297 297 297 296 296 296 295 295 294 294 294 294 294 293 293 293 293 292 292 291 290 290 291 291 291 292 293 292 289 289 292 295 296 296 296 296 296 296 295 294 294 294 294 294 295 295 294 293 293 292 293 293 293 292 292 293 293 293 292 292 291 291 291 291 290 289 288 289 289 290 290 291 292
298 297 297 298 298 297 297 297 297 297 297 297 297 297 297 297 297 297 297 296 296 295 295 295 295 294 294 294 293 293 293 293 292 292 292 291 292 292 291 290 290 289 288 288 292 295 295 295 296 297 296 295 294 293 293 293 293 293 294 294 293 293 293 292 292 292 292 292 291 291 291 291 291 291 290 290 290 290 290 289 289 289 289 290 290 291 292
298 297 297 297 297 297 297 297 297 297 297 297 297 297 297 297 297 297 297 297 297 296 295 295 295 295 295 295 294 294 294 293 292 292 292 292 293 292 290 288 288 288 287 289 293 296 295 295 296 297 296 295 294 293 293 293 293 293 293 293 293 293 292 292 292 292 292 291 291 290 290 290 290 290 290 290 290 290 290 289 289 288 288 289 290 291 291
298 298 297 297 297 297 297 297 297 297 297 297 297 297 297 297 297 297 297 297 297 296 296 296 295 295 295 295 295 295 295 294 293 293 292 291 292 292 291 289 288 288 287 289 292 295 296 296 296 296 296 294 294 293 293 292 292 292 292 292 292 292 292 292 292 292 292 291 290 290 289 290 290 289 289 289 289 289 289 289 289 288 288 289 290 290 290
298 298 297 297 297 297 297 297 297 297 297 297 297 296 296 296 296 296 296 296 296 296 296 296 296 296 296 295 295 295 295 295 295 294 293 292 292 292 291 290 288 288 287 287 289 292 294 295 296 296 296 295 294 293 292 291 291 292 292 292 292 292 292 292 292 292 292 291 291 289 289 289 289 289 289 289 289 289 289 289 288 288 288 288 289 290 289
298 297 297 297 297 297 297 297 297 297 297 297 297 297 296 296 296 296 296 296 296 296 296 296 296 296 296 296 295 295 295 295 295 295 295 294 294 292 291 289 288 288 288 288 288 289 290 291 293 294 295 294 293 292 291 290 290 290 290 291 292 292 292 292 292 291 290 290 290 289 289 288 288 288 289 289 289 289 289 289 289 289 289 289 289 289 289
297 297 297 297 297 297 297 297 297 297 297 297 296 296 296 296 296 296 296 296 296 296 296 296 296 296 296 296 296 296 295 295 295 294 295 295 295 293 291 290 289 288 288 288 288 288 288 288 289 291 292 292 291 290 289 289 288 288 288 288 289 289 290 290 289 289 288 288 288 288 288 288 288 288 288 288 288 289 289 289 289 289 290 290 290 290 290
297 297 297 298 298 297 297 297 297 297 297 297 296 296 296 296 296 296 296 296 296 296 296 296 296 296 296 296 296 296 296 295 295 294 294 295 295 294 293 293 292 291 289 288 288 288 288 288 287 288 289 289 289 288 288 288 287 287 287 287 287 287 287 287 287 287 287 287 287 288 288 288 288 288 288 287 288 288 289 289 289 289 290 290 290 290 289
Wind_Speed
7 9 8 4 4 5 4 5 5 5 6 7 6 1 2 1 4 4 6 7 7 6 6 6 6 6 7 8 12 15 19 22 23 25 27 28 28 28 27 26 24 21 18 15 13 12 11 12 12 11 11 11 10 10 10 10 11 12 13 14 13 13 15 18 20 22 23 22 22 21 19 18 17 15 17 19 19 18 19 20 21 21 20 19 18 18 18
8 11 11 6 4 7 7 7 6 6 8 9 8 5 6 9 8 8 10 11 8 4 4 6 7 8 12 16 19 21 22 23 26 28 28 27 28 28 29 28 27 25 21 17 14 12 10 11 12 12 11 10 9 10 9 9 9 11 11 12 11 10 13 17 21 22 24 24 23 21 20 19 19 19 18 18 17 17 19 20 20 21 20 19 18 18 18
4 8 9 6 5 10 9 8 9 7 7 9 8 7 9 10 9 9 12 11 7 3 4 7 8 11 17 19 20 21 21 23 28 29 28 27 28 28 29 29 29 28 26 23 19 16 14 11 11 12 12 12 10 10 9 8 9 10 10 10 11 11 12 16 19 21 23 24 23 23 21 20 20 20 19 18 17 18 19 20 19 20 20 19 18 18 18
1 4 6 5 1 9 10 10 11 10 5 6 5 3 4 6 8 10 9 7 4 2 3 8 11 16 19 17 17 20 22 26 30 30 29 29 29 29 29 30 30 30 30 29 26 24 20 15 13 12 12 14 13 12 10 9 10 10 10 11 12 12 12 14 17 19 21 22 22 22 22 20 21 21 19 19 19 19 19 20 20 20 19 19 19 19 19
1 3 4 5 3 5 7 7 9 8 3 5 6 5 5 4 6 7 5 4 5 6 6 8 10 14 16 15 17 20 21 25 30 30 29 29 29 30 31 31 32 32 32 32 31 29 26 21 18 15 12 13 14 14 12 10 10 11 12 12 12 12 11 11 13 15 17 19 20 21 20 20 22 22 22 21 20 20 20 21 20 20 20 20 20 20 21
1 2 3 3 2 4 2 5 6 5 2 7 9 6 6 6 5 5 5 6 6 5 7 9 8 11 15 18 21 23 21 23 27 28 28 27 27 29 30 31 32 33 32 33 33 33 32 28 22 17 14 13 14 15 16 14 13 13 13 12 11 11 10 9 8 9 11 14 17 18 18 19 21 22 23 23 21 21 21 21 21 20 20 20 21 21 22
3 1 3 3 1 2 1 4 6 6 5 9 13 10 8 8 10 10 9 9 8 8 10 13 14 16 19 20 21 21 20 20 22 24 24 23 22 24 26 26 27 28 28 29 31 32 33 32 28 23 20 19 19 20 20 21 20 18 16 13 13 13 12 10 9 9 10 11 13 14 15 16 18 21 24 25 23 22 22 21 21 20 20 20 21 21 22
2 3 2 2 2 1 2 5 6 5 5 6 10 10 8 6 9 11 9 8 10 12 14 17 19 21 23 22 19 16 16 16 17 19 20 19 19 19 20 20 19 19 20 21 22 24 26 28 30 30 28 27 28 28 27 26 25 23 20 18 16 14 13 11 11 10 10 11 11 12 12 12 14 16 19 19 20 22 22 22 21 20 20 20 21 21 21
3 3 2 3 4 1 2 3 3 2 2 3 2 5 4 2 5 11 11 8 9 13 16 20 22 23 23 19 15 14 16 15 14 15 15 14 14 15 16 15 13 14 14 14 14 15 16 18 21 25 26 27 28 30 28 27 27 26 25 23 20 18 16 15 13 12 11 10 10 10 9 8 7 7 8 9 11 14 17 18 19 19 19 19 20 20 21
2 4 3 3 3 2 1 1 4 3 3 4 2 4 4 2 4 12 14 11 10 13 17 19 17 16 16 9 6 13 20 19 18 18 16 13 13 13 13 12 9 7 8 8 8 8 9 11 13 15 19 21 23 25 24 23 23 25 25 24 22 20 19 18 16 15 14 12 10 9 8 6 5 3 2 3 5 7 9 11 12 13 15 16 17 18 19
2 4 3 2 2 1 1 4 6 7 6 5 0 4 3 3 8 14 15 13 12 14 17 16 9 8 8 2 5 14 20 20 21 21 19 17 16 15 14 11 9 7 5 3 3 3 2 5 8 7 9 13 15 17 17 16 16 18 20 19 18 18 18 17 16 15 15 14 12 11 9 6 5 4 3 2 3 4 5 6 8 9 11 12 13 14 14
2 3 3 2 1 1 2 4 8 11 11 5 2 2 2 6 13 17 18 17 15 14 13 10 4 5 7 8 10 15 17 17 18 20 19 19 17 17 16 14 12 11 10 8 6 3 3 4 5 3 1 2 4 7 9 8 8 10 12 11 10 11 12 13 13 13 13 13 12 11 10 8 6 6 6 5 4 4 4 5 6 7 8 9 9 10 11
4 4 3 1 1 3 3 7 11 11 6 0 3 3 4 9 16 17 16 17 15 13 14 14 11 10 15 17 17 17 17 17 18 18 18 18 17 17 17 15 12 11 10 11 10 8 8 7 6 3 2 2 1 2 2 1 1 3 4 4 3 3 4 5 6 7 8 9 9 9 9 9 8 8 7 7 6 6 6 6 8 9 9 9 9 9 11
3 3 2 1 0 2 6 11 11 7 3 2 2 1 5 12 17 17 17 19 20 21 24 25 24 23 24 25 23 22 21 19 17 14 14 15 15 14 13 12 10 8 7 7 7 6 7 7 7 6 4 3 3 1 2 3 4 5 6 6 5 5 5 5 4 3 3 3 4 5 6 7 8 9 9 8 7 7 7 7 8 10 11 11 12 12 13
2 3 3 2 2 5 12 11 6 5 3 3 6 12 15 19 23 24 23 25 28 30 30 28 29 28 26 26 25 23 20 17 13 11 9 9 10 9 8 8 7 5 5 5 5 5 4 4 5 5 5 4 3 3 3 3 4 5 7 9 10 10 10 11 11 11 10 10 9 10 9 7 6 8 8 7 8 9 7 7 7 8 10 12 13 14 16
2 2 2 2 2 7 12 7 4 6 9 13 18 21 20 21 24 27 27 25 27 31 31 28 27 25 23 21 19 17 14 12 10 8 6 6 8 8 8 8 6 5 4 4 4 4 5 5 5 5 5 3 2 3 3 4 5 6 7 9 10 11 12 13 13 14 14 14 13 13 12 12 11 12 12 12 13 14 14 13 10 9 9 11 12 14 16
4 4 3 4 4 10 17 20 19 19 22 24 25 26 24 22 23 26 28 26 25 26 26 24 22 20 17 15 13 11 9 7 6 6 7 7 7 8 9 9 7 5 5 7 7 7 7 7 7 5 4 3 2 2 3 5 7 8 8 9 10 11 12 13 14 15 16 17 17 15 14 15 17 17 17 17 17 16 17 19 18 15 13 12 13 15 16
7 9 8 8 11 17 23 25 26 26 28 27 28 31 29 26 24 25 26 24 21 19 19 19 18 15 13 12 10 8 7 7 7 7 7 7 8 8 8 8 8 7 8 8 7 6 6 5 5 4 4 4 4 3 4 4 5 6 7 8 8 9 10 12 13 15 16 17 17 17 17 17 19 20 20 21 20 17 16 18 20 19 18 16 15 16 18
4 5 5 7 12 17 22 25 24 24 24 24 24 26 26 23 21 20 18 17 15 12 12 15 15 12 10 11 10 9 8 9 8 8 7 6 7 9 9 8 7 7 7 6 4 4 4 4 4 5 5 5 5 5 6 6 6 7 7 8 8 9 9 9 10 11 13 14 14 15 16 17 18 20 22 23 24 23 22 21 21 20 21 20 19 19 21
4 4 5 9 15 17 19 22 22 22 22 20 19 19 18 17 17 16 14 15 14 13 13 14 14 12 10 10 12 12 11 9 7 6 5 4 5 5 5 4 4 3 3 3 3 4 4 4 5 6 7 8 8 8 9 9 9 9 9 9 10 10 11 11 11 11 12 12 12 11 12 12 14 17 19 21 21 21 22 23 23 23 24 23 21 20 21
5 5 7 11 13 11 12 18 21 21 23 22 20 19 18 17 18 18 17 16 14 14 14 13 12 14 13 12 14 13 11 8 6 4 3 2 1 1 1 2 2 1 1 2 3 5 6 6 7 9 11 12 13 14 14 14 14 13 13 12 12 12 13 13 13 13 13 13 12 12 11 10 11 12 14 16 17 17 17 18 19 21 24 24 22 21 22
3 3 7 10 8 5 9 16 20 20 20 21 19 18 17 16 16 16 16 15 14 13 13 11 11 13 14 12 11 10 8 6 4 3 2 2 3 1 1 2 2 2 3 5 6 8 10 11 12 14 15 16 17 18 18 19 19 18 17 17 16 16 16 16 16 16 15 15 14 14 13 13 13 13 13 14 14 15 16 16 17 18 20 21 22 22 23
5 9 13 14 12 10 11 16 19 19 18 18 18 17 17 16 15 15 15 14 12 12 12 10 8 10 11 10 8 7 6 4 2 1 1 3 3 2 2 3 5 7 9 10 11 13 14 16 16 16 17 17 18 18 18 19 19 17 17 17 16 16 17 17 17 17 17 17 16 16 16 15 15 16 16 16 16 15 15 16 18 19 19 19 18 18 20
11 16 18 17 17 16 14 16 18 17 16 16 16 15 14 13 13 12 11 11 11 11 10 8 6 6 7 7 6 5 4 2 0 1 2 3 2 3 5 7 10 11 12 13 14 15 15 16 16 16 15 15 15 15 15 16 16 15 13 12 12 12 13 13 12 12 12 12 12 13 13 13 13 15 17 17 17 17 17 17 18 18 19 19 18 17 16
16 19 20 20 21 20 18 17 17 15 13 13 13 11 9 8 7 7 7 9 10 10 9 8 6 5 5 5 4 3 2 1 1 2 3 4 4 6 8 10 11 12 12 12 12 12 13 14 14 13 13 13 14 15 15 14 13 11 8 6 5 5 6 6 6 5 6 6 7 7 8 9 9 11 13 15 16 16 17 18 19 19 19 20 20 19 16
21 22 22 21 20 19 17 16 15 14 11 10 11 11 8 6 5 4 3 5 6 6 6 5 4 4 5 4 3 2 1 0 0 2 4 5 6 9 10 11 12 12 11 10 10 10 11 12 12 13 14 15 16 14 9 5 3 2 4 7 9 10 11 11 10 9 9 8 8 7 7 8 9 11 11 12 13 14 15 16 18 18 19 20 21 21 20
21 20 20 20 18 15 14 13 12 10 9 8 10 10 9 8 7 5 4 5 5 4 3 2 2 3 5 4 3 3 2 2 2 3 5 6 8 10 10 11 12 12 11 9 10 10 10 12 13 15 16 15 10 4 4 7 9 10 11 13 13 12 12 12 12 10 8 7 7 8 8 9 11 12 13 13 13 14 14 15 16 17 18 18 18 19 20
18 16 16 16 15 13 13 11 8 6 6 7 9 9 8 8 8 6 6 6 5 4 5 5 4 5 6 4 2 2 3 3 4 5 6 7 9 10 11 12 12 12 11 10 9 10 12 14 15 14 11 5 5 10 13 13 13 13 13 13 12 11 11 11 9 8 7 8 8 9 10 13 14 15 15 15 16 16 16 17 17 17 17 16 15 15 16
14 13 12 12 11 10 10 9 9 8 8 9 9 9 9 8 8 9 8 6 6 7 7 7 7 7 7 4 3 4 4 5 5 6 8 10 11 11 12 12 12 12 11 11 11 13 13 11 7 5 5 9 14 15 15 14 13 13 12 13 12 11 10 9 7 6 8 9 9 10 12 15 16 17 18 19 19 18 18 18 18 18 17 15 13 13 13
12 12 12 10 8 7 7 8 8 8 9 8 8 8 8 6 5 7 7 5 7 11 10 9 9 8 5 3 4 4 5 6 7 9 11 13 12 11 11 11 12 12 11 11 12 11 5 4 9 11 12 14 14 14 13 12 11 11 12 12 11 9 7 5 5 7 8 9 10 12 14 16 17 19 20 20 20 19 18 17 16 15 15 14 11 11 12
13 12 11 9 8 7 7 6 6 8 10 10 10 10 9 5 5 6 5 4 7 13 13 10 8 5 3 4 4 5 6 8 11 13 14 13 12 11 11 11 11 10 10 11 10 3 6 12 14 13 13 12 12 12 11 11 10 9 9 8 8 6 4 4 5 7 9 10 12 14 15 16 18 19 21 21 20 18 16 15 11 9 9 10 10 11 11
14 12 11 9 8 7 6 5 5 6 10 12 10 9 6 3 2 5 6 5 7 9 9 6 5 4 3 4 5 7 9 12 14 15 13 11 10 10 10 9 9 9 9 9 5 4 11 13 12 12 12 10 9 9 10 10 9 8 6 5 5 3 2 4 6 8 10 12 14 14 13 14 17 20 22 23 21 18 15 12 8 5 5 5 6 9 10
16 15 13 11 10 9 8 5 5 4 7 11 9 6 4 2 1 5 8 6 4 4 4 4 4 3 4 5 7 10 13 14 13 12 10 9 9 9 8 7 7 7 7 4 2 9 13 12 11 12 11 9 7 6 6 6 6 5 4 4 3 1 3 5 7 9 11 12 11 11 12 14 17 19 22 24 22 17 13 10 7 4 3 3 3 5 8
12 14 14 12 10 8 6 4 4 5 6 10 9 6 5 3 3 6 8 5 3 4 5 5 5 5 6 9 11 13 13 11 9 8 7 7 8 7 6 6 6 5 1 3 7 11 12 11 9 9 8 7 5 3 2 2 2 1 2 2 0 2 3 5 8 11 12 11 10 11 13 14 17 20 22 23 22 17 12 9 7 4 3 3 4 4 5
10 14 14 12 8 6 4 4 4 4 5 8 9 7 5 4 6 8 7 4 4 6 5 4 4 6 9 11 12 10 8 6 5 5 5 7 7 5 5 5 4 1 5 8 9 10 11 9 7 6 6 5 2 2 2 2 2 2 3 3 2 1 3 5 8 10 12 12 13 14 15 15 17 19 21 22 21 17 11 8 7 5 3 4 5 6 7
13 15 14 10 7 6 6 6 5 3 3 6 8 6 5 6 8 8 6 5 5 5 4 4 6 9 10 9 6 4 2 2 2 3 4 6 6 5 5 5 3 5 9 10 10 10 10 9 6 4 3 2 0 2 3 3 3 4 4 5 4 1 3 5 7 9 11 12 13 15 15 16 17 18 18 21 21 17 13 12 10 8 5 4 3 4 6
15 13 11 9 7 6 6 5 3 2 2 4 5 4 4 6 7 6 5 5 4 4 3 5 7 8 5 2 0 1 2 2 2 2 4 5 5 4 4 4 4 7 11 11 10 9 9 7 5 4 3 2 3 5 5 4 4 3 3 4 4 2 2 5 7 7 8 11 13 13 14 17 18 17 16 18 19 17 15 16 16 15 13 10 8 6 5
14 10 9 8 5 4 4 4 3 1 1 3 5 4 4 4 5 6 6 5 4 3 3 5 6 3 0 1 0 1 2 3 3 3 3 3 2 2 2 2 3 6 9 11 11 9 8 6 4 4 4 4 4 6 7 8 8 7 7 6 5 3 3 3 5 6 6 8 10 11 13 15 17 17 16 15 16 17 18 19 19 18 17 15 13 12 10
12 8 6 4 2 2 4 5 3 2 3 4 4 5 5 5 6 7 8 7 6 5 3 6 5 2 1 1 3 3 3 4 3 3 2 1 1 2 2 1 1 2 5 9 10 9 6 5 6 6 5 5 4 4 5 6 5 5 4 4 3 3 2 1 3 4 4 5 6 8 10 12 15 17 17 14 13 15 18 19 18 17 16 15 13 12 10
7 5 4 5 6 5 5 5 3 2 3 4 5 5 6 7 8 10 10 7 6 5 4 5 5 2 2 3 4 3 3 3 3 2 1 1 1 2 2 1 1 2 1 4 8 9 7 6 5 6 5 5 5 5 5 4 3 3 2 1 0 1 2 3 3 3 4 5 5 5 7 9 12 15 17 15 12 12 14 16 16 15 15 14 12 10 8
4 4 4 6 7 7 6 6 5 4 3 4 4 5 6 7 9 11 10 7 5 5 5 4 4 3 2 4 5 5 3 2 1 0 1 1 2 2 2 2 2 2 2 3 5 8 9 8 5 5 5 5 5 5 5 3 1 1 0 0 2 3 4 5 5 4 4 5 6 5 5 7 9 12 14 14 11 9 10 12 14 13 13 12 10 9 7
3 4 5 6 7 6 5 5 5 6 6 5 5 5 6 7 8 9 9 8 7 6 6 5 5 4 4 5 5 5 4 2 1 2 2 2 3 4 3 3 4 4 3 3 5 7 9 8 6 5 6 6 4 5 4 3 2 2 1 1 4 6 6 6 6 6 5 5 5 5 4 6 8 9 12 13 11 7 7 8 9 9 10 10 9 9 8
7 6 7 7 7 7 7 7 6 6 7 7 6 6 7 9 9 9 9 10 9 7 6 5 6 7 7 6 5 4 4 5 6 5 5 5 5 6 5 4 4 5 5 3 4 6 6 7 6 7 7 5 3 3 4 4 5 4 3 2 4 6 5 5 6 6 6 5 5 5 5 6 8 9 10 11 11 8 4 3 4 5 6 7 7 7 6
8 9 11 11 10 9 9 10 10 8 7 7 7 6 7 8 9 8 9 10 9 6 5 6 7 7 8 7 6 4 5 6 7 6 6 7 8 8 7 6 6 6 7 5 4 5 5 5 7 9 8 5 3 3 4 4 5 4 4 3 2 3 2 3 3 3 3 3 5 6 7 7 9 9 9 9 10 8 5 2 4 5 4 3 3 4 3
8 9 10 11 10 9 9 11 11 10 8 8 7 7 7 7 7 8 9 9 8 7 7 8 8 8 8 8 7 6 6 7 7 6 5 6 8 8 8 7 7 8 8 7 5 5 5 6 10 10 7 5 5 6 6 6 6 5 5 5 3 2 2 2 2 2 1 3 6 7 7 8 8 9 8 7 6 7 6 4 4 4 3 3 4 4 3
8 8 7 8 8 6 7 8 10 11 10 9 9 8 7 7 6 8 10 11 9 8 8 8 8 9 8 8 7 7 8 8 8 7 6 6 7 8 7 6 7 7 8 6 5 5 6 9 12 11 8 7 8 9 8 8 8 7 7 5 3 3 3 1 1 1 2 4 6 6 6 6 6 7 7 6 5 4 5 4 3 3 2 3 5 5 5
6 6 6 7 8 7 6 7 10 11 12 12 11 11 10 8 7 7 10 12 12 11 11 10 10 9 9 8 8 7 7 8 9 9 9 9 9 8 7 6 5 5 5 5 3 4 7 10 12 11 9 9 9 9 9 9 8 8 7 6 5 5 4 3 2 2 3 5 6 5 4 4 4 5 5 5 5 5 5 5 4 3 2 1 5 6 4
6 6 6 7 8 8 8 9 10 11 12 12 11 10 9 8 6 7 8 11 13 13 12 13 13 12 11 10 10 9 8 8 9 9 9 9 8 7 6 5 5 4 4 3 3 5 7 10 11 11 10 10 10 9 9 8 7 7 7 6 5 5 6 5 5 4 5 7 8 7 5 4 5 6 6 6 6 6 6 6 5 4 3 2 4 6 5
9 9 8 7 7 8 9 9 10 10 11 12 11 10 9 8 8 8 8 9 11 11 11 12 13 14 13 13 12 12 11 10 10 9 8 8 8 8 7 7 6 4 3 3 4 5 7 8 10 11 12 12 11 10 8 7 6 7 7 6 6 7 7 7 8 8 9 9 9 9 7 6 6 7 6 6 6 6 7 7 6 5 5 4 4 6 5
10 11 10 9 8 8 9 10 11 11 11 12 13 12 12 12 12 12 10 9 9 10 11 11 12 12 12 12 13 14 15 15 13 10 8 7 7 7 7 6 5 4 4 4 5 6 7 8 9 11 12 12 11 10 8 7 7 7 8 9 10 11 12 12 12 11 11 10 10 10 9 8 7 6 5 4 4 5 6 6 6 6 6 5 5 6 6
8 8 9 9 9 9 10 11 11 12 12 13 12 12 11 12 12 11 10 10 10 9 10 11 12 13 12 12 12 11 13 15 16 14 10 8 6 5 4 5 5 5 4 4 4 5 7 8 9 10 11 11 10 9 9 9 9 9 9 10 11 12 13 14 13 12 11 11 11 10 9 7 5 4 3 3 3 3 4 4 5 6 6 6 7 8 8
6 6 6 7 8 8 9 10 11 12 13 13 12 11 11 11 11 10 10 10 11 10 9 9 10 11 13 14 14 12 11 12 15 16 14 11 9 6 5 5 6 6 5 5 4 5 6 7 8 9 10 10 9 8 8 8 8 7 7 7 7 7 8 9 9 9 9 9 9 8 7 5 3 2 3 3 2 2 2 3 4 6 7 8 9 10 11
Wind_Direction
5 2 358 14 74 75 74 93 91 77 70 74 88 106 281 113 119 153 155 125 106 106 99 89 82 76 77 77 77 79 81 85 88 87 85 82 83 86 90 96 103 109 113 116 119 121 121 119 122 128 130 133 138 141 147 159 167 173 184 198 206 209 208 206 200 198 198 196 193 196 203 208 209 209 212 208 201 203 207 203 201 203 203 203 206 206 205
25 18 357 343 92 89 63 55 57 72 83 83 85 88 78 77 85 111 116 100 80 65 74 79 74 73 81 82 79 78 78 82 84 84 80 76 76 78 78 83 90 93 96 102 107 110 109 112 119 127 137 144 144 145 152 160 164 164 169 181 195 199 199 205 208 207 207 205 204 207 214 219 220 214 206 203 201 200 202 201 201 203 205 206 208 210 210
28 20 2 345 97 95 70 40 19 28 71 78 73 82 86 80 80 95 100 95 80 46 72 92 82 73 74 72 68 67 71 79 82 80 78 74 73 75 75 80 86 88 89 91 93 95 95 102 115 126 140 147 146 148 154 161 169 172 176 186 196 198 194 199 206 209 211 214 216 217 219 225 225 215 207 208 207 201 201 204 203 203 207 209 212 216 217
345 358 2 323 102 83 61 29 2 351 24 80 75 63 78 103 122 119 107 102 113 128 97 90 80 74 69 60 60 66 71 78 80 78 76 75 74 75 76 80 84 86 86 85 84 87 91 101 115 125 141 147 144 144 146 146 149 156 171 188 199 203 201 200 203 206 209 212 215 217 217 219 220 215 213 214 211 204 203 205 207 209 211 214 218 221 223
329 333 346 287 276 61 44 355 336 322 321 94 81 45 40 72 120 129 126 122 135 141 116 90 78 78 76 69 70 73 72 76 80 79 77 76 76 77 77 80 83 83 82 81 81 83 88 98 112 124 136 134 129 131 134 134 137 140 149 164 181 193 196 198 203 206 209 211 213 215 214 213 215 216 217 217 214 210 209 209 213 215 216 220 224 226 228
177 286 349 334 352 67 37 308 328 338 37 90 87 66 48 56 76 100 109 105 111 116 106 100 96 94 94 91 86 82 77 76 79 80 79 77 76 77 78 79 80 81 80 80 81 82 84 89 101 118 127 121 119 124 125 124 127 129 132 140 153 161 160 164 176 185 196 203 207 209 209 209 214 217 217 217 216 215 213 213 216 220 222 224 227 230 233
142 138 52 46 56 87 239 306 346 8 43 82 85 71 58 76 94 98 99 102 105 103 102 109 112 108 103 97 89 85 81 78 77 75 75 77 77 77 76 75 77 78 77 76 78 79 81 84 91 102 108 106 108 112 114 115 114 113 115 122 133 140 140 143 149 152 167 184 193 201 206 207 210 214 217 219 219 220 220 220 222 225 228 231 233 235 238
118 122 93 114 136 88 328 327 343 1 15 49 73 66 48 73 107 107 103 108 114 113 113 116 115 108 99 88 82 86 89 87 85 79 75 76 75 72 68 62 59 62 65 66 68 71 73 77 84 92 97 99 101 103 105 107 104 103 106 109 115 125 130 133 138 144 158 172 177 185 195 200 206 212 217 220 224 227 229 231 233 237 240 241 241 242 244
116 117 91 107 125 128 340 341 336 347 343 332 81 92 57 36 120 125 121 121 125 123 124 126 119 106 92 77 70 85 93 93 95 92 84 80 78 78 77 68 51 40 41 48 55 61 62 62 69 82 91 96 99 99 100 100 98 98 99 97 97 104 110 115 122 129 139 151 157 163 167 169 182 201 211 217 224 229 233 235 237 241 243 243 243 245 248
98 107 102 114 138 166 185 260 279 282 269 260 213 106 77 44 132 139 133 131 141 139 137 139 129 102 83 69 72 96 97 93 90 87 84 85 87 90 95 95 82 53 32 26 22 36 53 45 44 66 84 91 96 97 96 97 98 98 96 93 91 93 97 102 107 113 118 124 135 148 152 147 149 161 174 202 221 228 235 239 238 238 239 239 242 246 247
62 100 108 121 145 170 238 255 276 302 301 274 204 86 88 133 143 143 136 135 149 154 152 154 145 92 82 119 153 117 103 91 86 83 82 84 84 84 87 90 90 88 75 39 347 320 26 34 24 47 79 86 90 93 93 96 101 99 95 92 90 90 93 97 100 104 107 109 115 126 132 138 149 153 150 164 207 229 241 244 241 242 242 239 240 242 240
66 88 90 85 140 245 275 274 287 308 315 300 139 120 184 154 148 151 147 145 157 166 158 151 124 86 119 150 147 124 105 90 86 85 82 84 84 82 82 80 78 79 76 73 74 83 88 59 31 12 48 83 98 104 98 97 102 96 87 81 84 89 94 100 104 109 112 114 117 123 128 132 140 155 168 177 187 203 219 231 234 233 233 234 235 231 230
76 87 101 78 267 258 289 305 306 316 329 344 160 207 208 149 142 151 150 146 153 150 127 107 87 96 124 136 134 124 113 105 101 95 90 91 92 90 88 85 80 76 70 69 71 71 69 66 59 49 0 320 199 171 170 161 73 49 46 44 65 103 114 115 118 122 127 132 134 137 144 147 150 159 171 185 200 208 215 235 250 246 239 242 244 234 228
58 85 97 72 179 309 325 317 319 353 58 186 211 110 133 127 122 122 122 121 121 114 105 102 103 109 118 125 126 124 123 120 115 110 106 103 102 104 104 100 96 88 80 77 75 65 54 47 44 44 35 26 43 32 289 282 290 301 303 301 293 275 257 252 254 258 242 215 204 196 182 171 168 170 170 176 188 194 200 221 245 251 249 252 255 249 241
63 81 56 82 184 321 336 326 318 18 62 158 106 86 97 108 109 106 106 109 114 114 110 109 113 115 117 119 121 121 122 121 119 117 113 102 99 104 107 105 106 106 97 86 74 56 43 26 14 11 6 9 22 14 349 336 313 294 285 284 287 285 279 275 276 281 284 280 271 260 251 239 214 205 211 217 212 210 213 218 227 238 245 250 255 255 250
98 115 48 83 220 331 2 34 89 73 87 109 103 92 90 95 102 106 105 106 113 118 117 115 116 117 116 118 121 121 117 114 112 104 91 83 84 84 83 83 89 99 97 77 59 42 30 26 19 10 5 1 340 313 311 307 300 292 281 274 274 276 278 278 277 278 279 279 278 272 263 259 253 247 250 253 244 237 235 236 238 243 246 247 251 254 252
77 99 106 109 76 44 57 79 89 88 93 99 100 97 92 90 98 106 107 107 111 115 117 117 115 114 114 114 117 118 111 104 100 89 76 68 66 64 63 62 61 63 51 39 40 46 45 43 40 31 24 22 358 309 293 288 286 285 280 274 270 268 269 270 271 271 270 268 268 268 263 261 261 260 258 258 256 252 246 245 249 256 260 257 257 261 260
82 79 93 100 80 69 76 87 92 94 96 98 97 95 92 92 98 104 106 108 109 110 113 111 106 105 109 107 106 108 104 94 86 77 64 53 47 39 32 31 34 38 39 35 38 49 53 44 28 13 6 5 6 0 341 327 319 310 302 299 294 285 277 273 271 271 271 269 267 265 262 260 259 260 261 260 261 263 260 254 253 255 258 257 258 266 266
100 82 98 101 92 88 89 92 95 96 97 100 102 99 96 96 98 99 101 104 104 105 110 109 103 104 111 112 110 113 111 100 88 77 64 50 36 24 21 30 39 37 35 34 29 30 37 28 7 351 344 343 345 342 336 334 332 328 325 324 322 317 311 302 293 285 280 278 275 271 267 262 257 255 256 257 259 261 262 259 255 253 254 253 250 255 262
83 105 128 112 103 105 104 102 104 104 104 107 109 106 103 101 99 100 105 110 112 114 119 118 112 107 115 127 130 127 123 118 107 95 82 51 22 20 34 55 55 31 15 5 354 351 352 349 335 323 318 316 314 312 312 312 312 313 315 316 316 316 316 313 310 304 297 291 287 282 274 267 260 255 252 252 255 258 260 260 257 253 254 255 252 251 255
85 103 123 110 97 96 105 110 111 111 111 112 112 111 112 111 110 112 113 115 117 119 125 130 119 103 105 125 135 131 125 123 119 107 87 58 36 39 24 354 340 321 303 308 314 314 310 307 303 301 301 301 301 301 300 298 298 297 297 298 298 299 301 303 303 303 301 297 295 291 284 275 264 257 254 253 255 256 257 259 260 257 255 256 256 254 252
133 163 150 130 114 109 117 117 117 117 117 116 115 115 116 116 117 117 115 113 112 114 123 134 126 108 105 115 126 124 117 114 108 88 91 128 145 164 285 317 310 294 293 294 292 290 290 290 289 288 290 291 293 295 296 295 295 294 292 291 289 288 290 292 294 297 299 299 298 297 293 287 276 265 256 253 257 262 262 260 262 263 261 260 260 261 258
152 155 151 141 131 132 135 129 125 125 126 123 117 112 113 116 121 122 119 117 115 114 116 121 123 120 115 113 116 116 109 104 83 47 144 164 170 196 255 282 294 298 298 295 291 288 285 284 285 286 287 288 289 291 293 293 293 293 293 292 289 287 288 289 292 296 297 298 299 298 297 297 293 285 272 260 254 259 266 268 266 265 265 266 265 266 265
119 133 142 136 121 120 133 142 139 135 134 130 121 115 115 117 119 118 116 121 128 129 127 125 127 134 133 129 133 134 125 122 288 271 204 212 234 261 275 286 293 296 295 291 287 284 282 284 287 288 287 287 287 290 293 292 290 292 296 296 294 294 297 299 300 302 302 303 305 306 307 307 305 301 295 286 273 263 262 267 271 271 271 271 270 267 265
123 128 131 125 117 115 119 129 133 132 127 123 121 121 117 113 120 124 118 125 136 140 143 144 145 155 160 155 153 157 157 188 268 271 263 266 274 282 293 305 311 309 301 290 283 281 282 284 288 292 295 298 299 299 297 293 289 291 300 313 326 341 354 358 356 350 348 349 350 348 347 342 332 323 318 312 302 288 275 270 273 275 275 274 274 272 269
122 125 123 117 117 118 117 118 122 122 117 113 115 119 115 114 136 149 130 131 141 145 146 144 142 157 165 156 140 152 177 196 212 240 255 267 282 295 309 323 327 322 307 285 275 278 281 284 292 300 304 306 306 304 303 306 318 357 51 61 59 55 50 47 44 39 32 28 29 28 19 5 352 341 333 325 319 311 301 290 283 279 276 274 274 274 274
122 127 123 111 107 110 113 117 119 117 115 119 123 121 116 119 132 144 147 148 151 158 156 130 110 144 153 145 141 170 205 241 232 234 255 277 295 310 321 325 323 321 313 292 277 277 284 291 299 302 303 305 311 335 77 88 85 82 79 74 69 62 57 54 51 46 40 36 35 28 12 358 350 342 334 326 316 307 303 299 294 289 286 283 279 276 275
116 121 120 112 109 113 118 125 135 135 133 140 143 139 133 130 129 138 157 165 164 167 157 130 115 136 150 157 192 224 235 247 250 258 281 301 310 314 317 316 314 315 314 302 290 289 292 293 295 300 306 331 68 91 95 93 88 83 77 71 66 63 62 61 58 50 39 30 22 8 354 351 351 347 340 334 323 311 301 293 288 285 285 286 284 279 276
116 117 118 114 116 124 129 135 149 156 151 151 156 157 156 150 136 134 146 168 186 185 165 140 136 150 164 189 250 269 254 249 265 289 307 314 314 311 310 310 308 306 304 298 293 293 293 294 307 347 55 90 97 97 95 90 84 80 77 73 69 66 65 63 54 37 24 16 5 354 351 354 356 353 348 342 334 326 315 302 288 278 275 279 282 276 269
132 131 131 125 121 127 133 138 157 175 176 176 183 185 185 192 182 163 160 173 186 180 166 155 160 171 189 229 264 270 260 267 291 307 311 311 309 306 305 303 300 296 291 288 290 292 297 80 84 84 90 96 97 94 90 86 83 82 81 77 71 66 63 56 34 16 7 360 357 358 360 1 0 357 352 347 340 332 324 314 301 282 271 271 273 265 255
143 139 137 135 133 136 135 136 161 186 193 197 204 204 202 215 223 200 179 145 155 163 164 169 185 205 239 259 264 270 277 290 302 305 304 304 302 300 301 298 291 287 285 290 296 294 119 109 103 103 103 100 99 97 90 81 74 70 70 71 70 66 53 19 4 3 358 352 355 1 4 6 5 2 359 356 349 341 332 326 317 296 277 271 264 257 252
151 148 145 143 144 144 137 121 126 166 192 202 206 205 202 215 233 198 174 140 143 162 172 187 213 234 253 260 273 287 291 295 299 298 298 299 296 296 297 293 287 290 296 300 298 145 134 126 119 119 116 111 110 105 93 82 74 68 71 81 83 71 10 352 358 359 352 349 352 360 8 11 9 6 6 4 357 349 343 341 336 320 304 285 254 242 244
158 151 149 150 149 143 137 119 92 114 184 199 204 206 202 200 202 189 180 163 158 186 203 226 248 267 279 285 295 298 294 293 294 291 289 291 293 292 292 290 294 303 308 310 148 144 142 135 128 126 119 110 103 97 91 90 84 77 85 94 86 6 338 359 4 354 348 351 -0 13 19 15 11 11 11 8 3 357 352 349 347 337 322 314 269 236 234
174 163 162 166 165 154 146 134 94 99 164 191 200 203 200 189 173 184 188 192 223 238 246 262 276 292 302 302 301 299 294 290 288 284 283 289 292 289 285 291 301 308 313 126 132 138 138 132 129 126 114 97 80 63 63 82 84 98 139 135 14 314 335 357 354 349 357 14 27 26 19 14 14 15 14 10 7 5 2 358 354 343 296 287 294 283 260
182 172 169 171 173 165 155 148 125 113 158 189 193 190 191 196 190 187 193 211 234 238 250 279 298 305 307 304 299 296 293 288 282 279 285 293 292 282 276 283 287 234 146 139 135 133 130 127 124 119 104 91 68 348 337 337 314 270 223 204 217 329 3 0 356 4 22 37 36 25 18 17 17 16 15 14 13 13 18 22 18 6 331 291 285 288 294
169 163 159 156 153 146 142 149 150 129 146 186 193 190 196 208 205 196 193 202 221 240 266 301 314 312 308 302 294 292 303 309 293 288 298 300 291 274 269 273 248 175 158 151 143 139 141 143 144 142 134 133 179 314 314 303 294 285 248 215 204 188 22 13 14 27 39 39 32 25 22 20 17 15 16 18 18 20 33 45 45 40 29 5 321 299 305
157 156 153 148 145 146 148 158 160 125 127 182 197 194 193 202 206 202 200 211 236 264 289 311 319 316 308 288 221 60 28 21 14 336 318 309 291 268 264 257 212 177 167 163 159 159 160 157 152 152 154 130 36 31 48 81 95 85 104 146 163 148 53 31 28 33 37 35 30 25 21 19 16 14 16 19 21 27 40 49 49 48 45 41 37 28 12
156 156 156 152 151 159 172 177 177 153 191 211 211 205 200 202 206 210 221 248 269 270 291 319 325 327 118 120 21 329 335 351 0 352 335 318 295 279 272 241 195 175 171 176 182 181 167 156 161 163 143 104 60 55 75 97 104 101 102 110 114 107 90 52 32 24 22 25 27 22 14 12 12 12 14 18 24 33 44 50 49 44 41 41 42 39 34
162 158 158 173 201 200 185 185 185 189 214 225 223 211 202 207 220 227 236 250 254 246 277 317 316 268 192 304 301 280 281 295 310 330 347 48 59 22 19 72 111 132 166 190 203 202 183 176 190 188 164 138 127 119 116 123 131 131 128 123 111 101 91 35 16 13 3 2 13 15 7 3 6 11 13 16 23 34 43 48 49 46 41 39 40 43 46
188 211 249 260 253 227 203 206 209 185 191 222 240 231 215 217 229 235 236 242 245 240 263 302 303 273 259 288 284 277 291 296 287 278 261 223 286 346 358 28 45 47 134 206 216 218 216 210 194 179 169 162 164 170 174 172 163 151 145 141 96 50 24 2 352 349 342 336 337 348 353 355 0 7 9 11 20 35 41 43 45 48 47 43 42 46 61
208 223 231 230 224 214 215 233 242 227 209 224 247 245 229 223 233 240 241 244 246 234 236 271 306 317 309 300 293 286 292 327 21 286 242 246 275 308 329 338 337 335 307 253 231 225 228 229 209 174 161 160 169 190 204 205 194 180 156 1 323 324 338 341 329 316 320 324 316 315 332 346 354 0 3 2 9 31 45 43 43 46 47 48 50 53 62
255 225 213 214 218 219 222 231 237 240 244 244 244 241 236 234 240 245 242 235 229 220 221 252 299 312 306 311 310 288 263 263 297 305 310 312 306 308 326 342 342 337 318 269 242 233 232 230 212 171 153 156 178 207 213 209 229 258 268 318 308 299 302 310 305 294 295 306 303 296 309 331 341 351 354 352 354 19 53 55 48 47 46 44 47 52 53
303 272 247 238 238 236 228 223 231 251 262 257 245 242 247 249 247 242 230 222 219 218 226 260 287 288 281 292 312 307 281 276 278 280 290 296 293 298 314 327 328 333 334 298 250 240 239 227 199 171 157 156 173 200 210 224 244 249 236 248 280 283 284 284 279 271 266 273 283 285 295 317 329 333 337 341 347 0 38 76 77 73 64 48 41 44 50
311 287 265 255 258 259 250 240 238 247 262 265 261 265 273 266 250 234 224 223 227 232 245 266 278 276 266 269 282 292 293 292 285 273 269 276 285 298 311 310 301 311 323 312 271 252 248 222 190 176 169 163 163 174 185 203 220 219 198 194 226 258 257 244 240 244 263 293 300 296 294 305 318 322 325 330 336 340 348 45 84 84 82 76 62 52 47
313 301 277 261 259 263 257 246 238 240 254 262 261 269 283 277 250 230 226 232 240 250 254 259 264 266 262 262 268 274 283 296 301 290 278 285 299 311 314 302 292 299 309 304 277 258 243 206 182 177 177 178 174 171 164 158 156 154 150 151 166 205 221 189 149 121 36 337 322 308 299 299 306 312 315 316 320 327 338 4 35 41 47 87 100 82 61
311 307 279 256 254 263 263 250 241 243 253 257 254 258 276 286 269 247 238 235 240 252 256 251 253 261 264 265 270 274 275 281 289 294 293 296 308 320 321 307 295 299 304 296 270 247 228 200 183 180 185 183 175 172 168 160 150 143 141 150 183 238 252 227 169 144 344 338 330 317 306 304 306 309 310 305 295 303 322 332 338 351 24 84 106 100 87
307 305 283 265 264 267 260 246 242 246 253 256 256 258 265 273 277 268 247 233 233 245 253 251 252 261 266 265 268 273 272 270 276 282 284 283 290 308 324 321 302 295 298 290 254 218 208 198 189 186 190 189 186 189 191 184 174 170 175 192 222 251 267 276 273 272 312 333 335 331 327 332 332 326 317 304 287 280 290 299 302 312 333 108 129 128 123
281 285 283 281 280 274 261 249 248 250 252 252 254 253 251 254 270 281 263 243 239 245 251 250 250 254 259 261 266 274 275 274 278 284 285 279 277 288 312 322 310 291 279 268 236 205 199 197 195 194 196 199 206 215 219 212 206 208 212 220 236 253 266 279 286 285 297 315 323 326 330 338 343 341 331 311 288 270 264 265 267 276 283 234 169 156 157
269 267 266 267 269 268 258 249 248 251 251 251 251 248 245 251 267 280 273 254 245 245 249 251 252 252 251 251 256 261 265 271 283 295 300 294 288 289 298 305 301 289 270 250 232 217 207 203 201 201 204 211 220 231 239 242 241 241 244 252 263 271 275 280 284 286 291 298 306 311 318 326 334 336 330 314 292 270 258 252 245 241 247 238 194 165 163
275 271 265 257 255 263 265 261 258 257 254 250 248 249 251 255 260 266 269 265 255 250 251 252 252 251 251 252 253 253 253 255 263 277 293 303 308 309 308 301 290 279 267 246 227 217 214 211 207 206 211 219 228 238 250 263 270 270 269 270 271 273 275 277 279 281 285 288 293 301 311 320 322 323 321 311 286 261 249 242 230 222 219 205 173 158 163
284 274 266 261 263 269 271 268 264 261 258 254 251 250 250 251 254 261 269 270 266 263 260 255 251 253 258 263 264 260 254 250 251 257 270 289 305 315 316 311 303 292 272 248 229 223 220 215 208 207 214 224 233 241 253 265 272 271 267 265 265 266 268 271 273 274 276 279 284 291 296 300 302 307 317 314 287 252 229 218 211 202 187 166 153 151 149
292 273 265 266 273 280 280 275 268 260 255 253 253 248 241 240 247 257 263 261 259 263 267 262 258 259 262 263 264 264 261 253 248 247 254 267 278 284 293 308 315 310 291 268 255 247 238 224 210 204 211 222 234 243 251 258 260 259 259 262 261 257 257 261 263 264 267 269 273 277 277 274 273 290 314 316 293 249 201 179 174 169 158 149 145 142 137